Location: Etiwanda
(34.1261°N, 117.5237°W)
Time: 09:39:53
(UTC+00:00)

CZ-3C R/B - Pass Details

Date: 03 August 2024
Orbit: 267 x 32385 km, 20.6° (Epoch: 09 September)

Event Time Altitude Azimuth Distance (km) Brightness Sun altitude
Exits shadow 11:22:42 23° 209° (SSW) 2,851 3.9 -18.9°
Maximum altitude 11:28:42 44° 150° (SSE) 3,617 4.8 -17.9°
Drops below altitude 10° 19:25:08 10° 133° (SE) 20,426 9.1 71.7°
Sets 19:45:56 0° 130° (SE) 17,220 8.5 72.9°
